Location: Chandler
(33.3060°N, 111.8410°W)
Time: 03:44:09
(UTC-07:00)

Amateur Radio Satellites - All Passes

Search period start: 16 January 2017 03:14
Search period end: 17 January 2017 03:14
Location: Chandler, 33.3060°N, 111.8410°W

Satellite Date Start Highest point End Downlink Frequencies (MHz)
Time Altitude Azimuth
MOZHAYETS 4 16 Jan 03:14:50 03:19:21 73° 77° (ENE) 03:23:56
Oscar 19 16 Jan 03:14:56 03:18:05 17° 294° (WNW) 03:21:14 437.125/150
RS-15 16 Jan 03:23:17 03:32:02 22° 326° (NW) 03:41:00 29.354- 29.394
YUBILEINY 16 Jan 03:27:19 03:35:17 40° 273° (W) 03:43:13 435.215
ITUPSAT 1 16 Jan 03:35:41 03:38:56 18° 265° (W) 03:42:12 437.325
ITAMSAT 1 16 Jan 03:44:57 03:50:11 86° 285° (WNW) 03:55:24 435.822/435.867
CUBESAT XI-V 16 Jan 03:48:00 03:51:36 22° 70° (ENE) 03:55:14 437.345
PHONESAT 2.4 16 Jan 03:58:36 04:00:54 81° 330° (NNW) 04:03:14 2401.200-2431.200
Cosmos 2504 16 Jan 04:01:04 04:07:47 39° 272° (W) 04:14:17 435.465 / 435.565
M-CUBED/EXP-1 PRIME 16 Jan 04:01:27 04:05:43 39° 256° (WSW) 04:09:49 437.505
STARS 16 Jan 04:02:34 04:06:29 32° 72° (ENE) 04:10:24 437.465
Cosmos 2491 16 Jan 04:09:02 04:16:45 35° 285° (WNW) 04:24:33 435.465 / 435.565
AO-7 16 Jan 04:09:38 04:18:03 80° 106° (ESE) 04:26:23 29.400- 29.500
BEESAT 3 16 Jan 04:13:31 04:16:02 16° 251° (WSW) 04:18:32 437.485
CUSAT 1 16 Jan 04:31:13 04:35:20 51° 283° (WNW) 04:40:48 437.405
KKS-1 16 Jan 04:31:15 04:35:33 46° 260° (W) 04:39:49 437.445
BRITE-PL 16 Jan 04:32:27 04:36:02 20° 93° (E) 04:39:25 437.365/2234.400
DANDE 16 Jan 04:33:33 04:36:15 26° 88° (E) 04:39:33 436.750
AUBIESAT-1 16 Jan 04:44:11 04:46:56 16° 260° (W) 04:49:37 437.475
BEESAT 2 16 Jan 04:47:15 04:49:50 17° 251° (WSW) 04:52:26 435.950
GOMX 1 16 Jan 05:02:51 05:05:05 14° 92° (E) 05:07:15 467.674
CUBESAT XI-V 16 Jan 05:24:43 05:28:46 29° 263° (W) 05:32:52 437.345
NOAA 15 16 Jan 05:29:50 05:32:18 13° 93° (E) 05:34:45 137.62
PHONESAT 2.4 16 Jan 05:33:43 05:35:23 17° 350° (N) 05:37:04 2401.200-2431.200
HORYU 2 16 Jan 05:36:24 05:40:41 45° 100° (E) 05:44:56 437.375
STARS 16 Jan 05:39:56 05:42:51 17° 265° (W) 05:45:46 437.465
LilacSat-2 16 Jan 05:46:59 05:49:39 18° 95° (E) 05:52:19 437.200
RS-15 16 Jan 05:48:09 05:51:52 12° 3° (N) 05:55:34 29.354- 29.394
CUTE-I 16 Jan 05:59:31 06:03:59 27° 97° (E) 06:08:26 437.470
AIST 2 16 Jan 05:59:48 06:03:52 44° 58° (ENE) 06:07:55 435.215
AO-7 16 Jan 06:04:15 06:09:50 20° 303° (WNW) 06:15:25 29.400- 29.500
DOVE 4 16 Jan 06:05:49 06:09:20 26° 96° (E) 06:12:48 437.250
NOAA 18 16 Jan 06:06:33 06:09:45 16° 94° (E) 06:12:58 137.9125
BRITE-PL 16 Jan 06:10:10 06:14:34 32° 289° (WNW) 06:18:41 437.365/2234.400
GONETS M04 16 Jan 06:18:34 06:23:44 16° 68° (ENE) 06:28:52
DANDE 16 Jan 06:18:43 06:19:18 10° 295° (WNW) 06:19:54 436.750
ISS 16 Jan 06:28:46 06:31:13 19° 34° (NE) 06:33:40 145.825
CINEMA 3 16 Jan 06:35:15 06:36:07 11° 93° (E) 06:37:00 145.822/145.860
Cosmos 2499 16 Jan 06:35:28 06:40:50 22° 72° (ENE) 06:46:07 435.465 / 435.565
GOMX 1 16 Jan 06:39:13 06:43:23 38° 287° (WNW) 06:47:20 467.674
Cubesat XI-IV 16 Jan 06:40:24 06:45:43 70° 102° (ESE) 06:51:02 437.490
STRAND 1 16 Jan 06:47:58 06:52:55 55° 74° (ENE) 06:57:53 437.568
HO-68 16 Jan 07:02:48 07:08:11 22° 95° (E) 07:13:32 435.675
NOAA 15 16 Jan 07:07:09 07:12:23 60° 286° (WNW) 07:17:35 137.62
PHONESAT 2.4 16 Jan 07:08:40 07:10:09 15° 6° (N) 07:11:39 2401.200-2431.200
HORYU 2 16 Jan 07:14:34 07:16:48 14° 293° (WNW) 07:19:01 437.375
LilacSat-2 16 Jan 07:20:43 07:23:51 24° 288° (WNW) 07:26:59 437.200
CUTE-I 16 Jan 07:39:19 07:43:56 31° 290° (WNW) 07:48:34 437.470
CUTE 1.7 + AOD 2 16 Jan 07:39:49 07:43:50 38° 98° (E) 07:47:49 437.475
AIST 2 16 Jan 07:39:58 07:41:54 13° 252° (WSW) 07:43:50 435.215
O/OREOS (USA 219) 16 Jan 07:43:15 07:47:39 55° 292° (WNW) 07:52:02 437.305
DOVE 4 16 Jan 07:43:53 07:46:51 19° 291° (WNW) 07:49:46 437.250
NOAA 18 16 Jan 07:45:22 07:50:40 53° 287° (WNW) 07:55:56 137.9125
CUBEBUG 2 16 Jan 08:00:13 08:03:49 26° 97° (E) 08:07:31 437.445
RS-15 16 Jan 08:01:12 08:11:05 27° 39° (NE) 08:20:41 29.354- 29.394
PRISM 16 Jan 08:01:45 08:03:54 14° 67° (ENE) 08:06:03 437.425
ISS 16 Jan 08:04:48 08:07:44 32° 229° (SW) 08:10:42 145.825
CANX-2 16 Jan 08:07:46 08:12:05 79° 282° (WNW) 08:16:22 2200.000
CINEMA 3 16 Jan 08:09:27 08:13:25 46° 286° (WNW) 08:17:30 145.822/145.860
GONETS M04 16 Jan 08:12:41 08:21:33 85° 266° (W) 08:30:25
Oscar 11 16 Jan 08:19:45 08:21:28 12° 93° (E) 08:23:11 145.826/435.025
SO-50 16 Jan 08:21:13 08:25:22 31° 112° (ESE) 08:29:30 436.795
Cubesat XI-IV 16 Jan 08:22:56 08:25:09 13° 297° (WNW) 08:27:21 437.490
Cosmos 2499 16 Jan 08:27:25 08:34:14 50° 269° (W) 08:40:58 435.465 / 435.565
SEEDS 16 Jan 08:29:06 08:33:22 79° 282° (WNW) 08:37:35 437.485
STRAND 1 16 Jan 08:29:59 08:32:22 13° 267° (W) 08:34:46 437.568
UWE-3 16 Jan 08:38:25 08:42:36 45° 100° (E) 08:46:52 435.000/436.395/437.385
PHONESAT 2.4 16 Jan 08:42:27 08:44:44 46° 22° (NNE) 08:47:00 2401.200-2431.200
COMPASS 1 16 Jan 08:43:49 08:48:02 82° 285° (WNW) 08:52:14 437.405
FUNcube-1 16 Jan 08:48:08 08:52:00 31° 98° (E) 08:55:55 145.935
TIGRISAT 16 Jan 08:48:50 08:50:25 12° 67° (ENE) 08:51:59 435.000
HO-68 16 Jan 08:49:12 08:56:10 57° 290° (WNW) 09:03:07 435.675
AAUSAT CUBESAT 2 16 Jan 09:00:08 09:04:18 69° 284° (WNW) 09:08:26 437.432
ANTELSAT 16 Jan 09:01:20 09:04:16 18° 69° (ENE) 09:07:11 437.575/2403.000
ZACube-1 16 Jan 09:08:01 09:12:19 60° 100° (E) 09:16:43 437.345
CUTE 1.7 + AOD 2 16 Jan 09:16:54 09:19:17 15° 292° (WNW) 09:21:40 437.475
DELFI C3 16 Jan 09:24:55 09:28:03 22° 96° (E) 09:31:09 145.870
PRISM 16 Jan 09:34:55 09:38:47 38° 261° (W) 09:42:43 437.425
CUBEBUG 2 16 Jan 09:37:00 09:40:17 22° 289° (WNW) 09:43:37 437.445
Oscar 11 16 Jan 09:53:36 09:57:46 45° 286° (WNW) 10:01:55 145.826/435.025
HUMSAT D 16 Jan 10:01:24 10:05:18 33° 98° (E) 10:09:11 437.325/437.525
SO-50 16 Jan 10:01:55 10:05:48 25° 307° (NW) 10:09:40 436.795
UNISAT 6 16 Jan 10:07:30 10:11:46 67° 259° (W) 10:16:01 437.425
RS-15 16 Jan 10:13:03 10:25:26 89° 63° (ENE) 10:37:14 29.354- 29.394
GONETS M04 16 Jan 10:13:29 10:16:58 13° 282° (WNW) 10:20:27
UWE-3 16 Jan 10:16:40 10:18:38 13° 292° (WNW) 10:20:39 435.000/436.395/437.385
PHONESAT 2.4 16 Jan 10:17:21 10:18:47 15° 215° (SW) 10:20:13 2401.200-2431.200
TIGRISAT 16 Jan 10:22:32 10:26:40 46° 260° (W) 10:30:46 435.000
FUNcube-1 16 Jan 10:24:56 10:27:59 19° 290° (WNW) 10:31:05 145.935
JAS-2 16 Jan 10:28:25 10:33:24 50° 72° (ENE) 10:38:43 435.910
ANTELSAT 16 Jan 10:36:59 10:40:44 29° 263° (W) 10:44:28 437.575/2403.000
BY70-1 16 Jan 10:45:40 10:48:24 22° 96° (E) 10:51:00 436.1900
ZACube-1 16 Jan 10:47:55 10:48:05 10° 294° (WNW) 10:48:14 437.345
QB50P1 16 Jan 10:57:23 11:01:13 35° 73° (ENE) 11:05:03 145.935-145.965
DELFI C3 16 Jan 10:59:41 11:02:42 21° 289° (WNW) 11:05:43 145.870
POLYITAN 1 16 Jan 10:59:57 11:03:50 38° 73° (ENE) 11:07:44 437.675
QB50P2 16 Jan 11:00:55 11:04:53 42° 74° (ENE) 11:08:52 145.880/145.840
BUGSAT 1 16 Jan 11:02:28 11:03:03 10° 67° (ENE) 11:03:37 437.445
CUBEBUG 1 16 Jan 11:09:11 11:10:55 12° 93° (E) 11:12:39 437.445
PCSat 16 Jan 11:10:29 11:15:45 49° 61° (ENE) 11:20:58 145.827
ESTCUBE 1 16 Jan 11:13:30 11:17:22 27° 97° (E) 11:21:10 437.505/2401.250
POPSAT HIP 1 16 Jan 11:23:25 11:27:36 75° 78° (ENE) 11:31:47 437.405
HUMSAT D 16 Jan 11:37:54 11:40:36 16° 291° (WNW) 11:43:17 437.325/437.525
DUCHIFAT 1 16 Jan 11:40:11 11:44:21 79° 258° (WSW) 11:48:32 145.980
NANOSAT C BR1 16 Jan 11:43:16 11:47:25 64° 259° (W) 11:51:34 145.865
VELOX 1 16 Jan 11:45:28 11:48:45 20° 96° (E) 11:52:00 145.980
JAS-2 16 Jan 12:16:11 12:18:55 14° 268° (W) 12:21:43 435.910
BY70-1 16 Jan 12:16:39 12:18:32 14° 291° (WNW) 12:20:23 436.1900
Gurwin Techsat 1B 16 Jan 12:26:25 12:29:22 15° 65° (ENE) 12:32:19 435.225
RS-15 16 Jan 12:28:31 12:36:09 20° 261° (W) 12:43:39 29.354- 29.394
Cosmos 2491 16 Jan 12:29:09 12:34:06 16° 67° (ENE) 12:39:01 435.465 / 435.565
DX 1 16 Jan 12:32:27 12:36:23 33° 98° (E) 12:40:16 434.975-435.025
BUGSAT 1 16 Jan 12:33:57 12:37:57 50° 260° (W) 12:41:54 437.445
QB50P1 16 Jan 12:34:43 12:37:03 14° 266° (W) 12:39:23 145.935-145.965
POLYITAN 1 16 Jan 12:37:43 12:39:44 13° 266° (W) 12:41:46 437.675
QB50P2 16 Jan 12:39:14 12:40:50 12° 267° (W) 12:42:26 145.880/145.840
UKube-1 16 Jan 12:40:57 12:44:43 29° 98° (E) 12:48:27 .
CUBEBUG 1 16 Jan 12:43:15 12:47:22 44° 286° (WNW) 12:51:27 437.445
Oscar 19 16 Jan 12:46:47 12:51:45 48° 72° (ENE) 12:56:44 437.125/150
AISAT 16 Jan 12:47:13 12:51:34 65° 285° (WNW) 12:55:53 437.250
SPROUT 16 Jan 12:47:58 12:52:15 87° 109° (ESE) 12:56:29 437.525
ESTCUBE 1 16 Jan 12:50:27 12:53:58 23° 290° (WNW) 12:57:30 437.505/2401.250
PCSat 16 Jan 12:55:09 12:58:41 18° 255° (WSW) 13:02:13 145.827
TISAT 1 16 Jan 12:58:46 13:00:29 12° 94° (E) 13:02:13 437.305
50 SAT 16 Jan 13:07:46 13:11:05 38° 286° (WNW) 13:14:23 437.505
AO-7 16 Jan 13:16:41 13:20:30 14° 53° (NE) 13:24:19 29.400- 29.500
VELOX 1 16 Jan 13:21:25 13:25:08 28° 289° (WNW) 13:28:51 145.980
CUSAT 1 16 Jan 13:28:00 13:31:58 14° 65° (ENE) 13:35:51 437.405
ITUPSAT 1 16 Jan 14:02:58 14:05:10 13° 93° (E) 14:07:22 437.325
Gurwin Techsat 1B 16 Jan 14:03:33 14:08:46 57° 259° (W) 14:14:00 435.225
AO-85 16 Jan 14:04:45 14:08:37 24° 112° (ESE) 14:12:17 145.980
DX 1 16 Jan 14:09:26 14:12:16 17° 292° (WNW) 14:15:06 434.975-435.025
UKube-1 16 Jan 14:17:28 14:20:31 19° 291° (WNW) 14:23:32 .
Cosmos 2491 16 Jan 14:23:08 14:31:58 87° 265° (W) 14:40:47 435.465 / 435.565
YUBILEINY 16 Jan 14:25:43 14:34:04 50° 89° (E) 14:42:26 435.215
Oscar 19 16 Jan 14:28:03 14:31:15 16° 266° (W) 14:34:27 437.125/150
TISAT 1 16 Jan 14:32:21 14:36:15 40° 286° (WNW) 14:40:09 437.305
JUGNU 16 Jan 14:37:16 14:38:51 11° 163° (SSE) 14:40:26 437.505
BEESAT 16 Jan 14:38:49 14:43:11 34° 98° (E) 14:47:31 436.000
SWISSCUBE 16 Jan 14:39:51 14:44:22 40° 99° (E) 14:48:52 437.505
Cosmos 2504 16 Jan 14:40:06 14:47:36 32° 86° (E) 14:54:47 435.465 / 435.565
AIST 1 16 Jan 14:50:32 14:54:56 77° 277° (W) 14:59:18
ITAMSAT 1 16 Jan 14:58:41 15:03:51 86° 258° (WSW) 15:09:03 435.822/435.867
AO-7 16 Jan 15:03:33 15:11:52 76° 70° (ENE) 15:20:14 29.400- 29.500
CUSAT 1 16 Jan 15:06:56 15:14:59 81° 82° (E) 15:22:28 437.405
DANDE 16 Jan 15:11:50 15:18:43 35° 76° (ENE) 15:26:08 436.750
MOZHAYETS 4 16 Jan 15:14:33 15:18:16 24° 96° (E) 15:21:59
BRITE-PL 16 Jan 15:38:14 15:42:09 20° 67° (ENE) 15:46:06 437.365/2234.400
ITUPSAT 1 16 Jan 15:38:33 15:43:13 51° 286° (WNW) 15:47:51 437.325
AO-85 16 Jan 15:44:38 15:48:53 31° 303° (WNW) 15:52:53 145.980
M-CUBED/EXP-1 PRIME 16 Jan 15:45:43 15:47:43 15° 99° (E) 15:49:42 437.505
GOMX 1 16 Jan 16:06:28 16:09:11 14° 66° (ENE) 16:11:51 467.674
BEESAT 16 Jan 16:17:14 16:20:41 20° 292° (WNW) 16:24:08 436.000
SWISSCUBE 16 Jan 16:18:40 16:21:47 18° 293° (WNW) 16:24:55 437.505
O/OREOS (USA 219) 16 Jan 16:20:31 16:21:57 11° 58° (ENE) 16:23:22 437.305
BEESAT 3 16 Jan 16:22:43 16:24:46 14° 109° (ESE) 16:26:50 437.485
JUGNU 16 Jan 16:23:02 16:27:10 19° 172° (S) 16:31:18 437.505
YUBILEINY 16 Jan 16:23:33 16:31:02 31° 286° (WNW) 16:38:35 435.215
Cosmos 2491 16 Jan 16:23:48 16:27:25 13° 282° (WNW) 16:31:03 435.465 / 435.565
AUBIESAT-1 16 Jan 16:25:12 16:28:26 44° 104° (ESE) 16:31:35 437.475
KKS-1 16 Jan 16:26:08 16:30:23 44° 100° (E) 16:34:35 437.445
HORYU 2 16 Jan 16:30:44 16:34:19 25° 70° (ENE) 16:37:55 437.375
Cosmos 2504 16 Jan 16:32:14 16:40:37 47° 281° (W) 16:48:41 435.465 / 435.565
NOAA 15 16 Jan 16:45:56 16:48:54 15° 64° (ENE) 16:51:52 137.62
CUSAT 1 16 Jan 16:51:04 16:55:53 18° 278° (W) 17:00:34 437.405
MOZHAYETS 4 16 Jan 16:51:26 16:55:20 27° 289° (WNW) 16:59:12
DANDE 16 Jan 16:54:08 17:01:26 46° 268° (W) 17:09:16 436.750
BEESAT 2 16 Jan 16:57:38 16:59:50 15° 109° (ESE) 17:02:03 435.950
SO-50 16 Jan 16:59:22 16:59:39 10° 46° (NE) 16:59:56 436.795
AO-7 16 Jan 16:59:44 17:05:12 19° 266° (W) 17:10:43 29.400- 29.500
DOVE 4 16 Jan 17:06:50 17:10:38 21° 70° (ENE) 17:14:19 437.250
BRITE-PL 16 Jan 17:14:41 17:20:08 51° 261° (W) 17:25:40 437.365/2234.400
CUTE-I 16 Jan 17:17:20 17:21:53 30° 69° (ENE) 17:26:26 437.470
M-CUBED/EXP-1 PRIME 16 Jan 17:19:40 17:22:11 20° 294° (WNW) 17:24:37 437.505
CUBESAT XI-V 16 Jan 17:24:37 17:29:20 86° 284° (WNW) 17:34:00 437.345
NOAA 18 16 Jan 17:28:29 17:32:35 22° 66° (ENE) 17:36:40 137.9125
HO-68 16 Jan 17:31:25 17:33:03 11° 56° (NE) 17:34:41 435.675
STARS 16 Jan 17:31:35 17:35:56 70° 284° (WNW) 17:40:15 437.465
GOMX 1 16 Jan 17:41:12 17:46:40 66° 259° (W) 17:52:00 467.674
SRMSAT 16 Jan 17:44:57 17:48:07 15° 166° (SSE) 17:51:17 437.500
O/OREOS (USA 219) 16 Jan 17:57:16 18:01:42 58° 253° (WSW) 18:06:07 437.305
LilacSat-2 16 Jan 17:57:35 18:01:20 87° 76° (ENE) 18:05:07 437.200
Cubesat XI-IV 16 Jan 17:58:11 18:03:29 76° 75° (ENE) 18:08:48 437.490
BEESAT 3 16 Jan 17:58:29 18:02:02 34° 303° (WNW) 18:05:38 437.485
KKS-1 16 Jan 18:04:19 18:06:30 14° 293° (WNW) 18:08:41 437.445
HORYU 2 16 Jan 18:07:15 18:10:45 23° 263° (W) 18:14:16 437.375
JUGNU 16 Jan 18:11:07 18:15:33 22° 182° (S) 18:20:00 437.505
NOAA 15 16 Jan 18:22:58 18:28:08 57° 259° (W) 18:33:21 137.62
CUTE 1.7 + AOD 2 16 Jan 18:29:25 18:32:04 16° 69° (ENE) 18:34:44 437.475
BEESAT 2 16 Jan 18:33:41 18:37:16 34° 303° (WNW) 18:40:55 435.950
SO-50 16 Jan 18:36:12 18:40:41 84° 244° (WSW) 18:45:08 436.795
DOVE 4 16 Jan 18:43:19 18:48:03 36° 262° (W) 18:52:37 437.250
CUBEBUG 2 16 Jan 18:56:06 18:57:58 13° 68° (ENE) 18:59:49 437.445
CANX-2 16 Jan 18:56:12 19:00:10 40° 74° (ENE) 19:04:10 2200.000
CUTE-I 16 Jan 18:57:21 19:01:49 28° 263° (W) 19:06:20 437.470
STRAND 1 16 Jan 19:03:05 19:07:24 27° 97° (E) 19:11:41 437.568
CINEMA 3 16 Jan 19:06:14 19:10:51 89° 256° (WSW) 19:15:16 145.822/145.860
Cosmos 2499 16 Jan 19:06:36 19:13:03 24° 85° (E) 19:19:11 435.465 / 435.565
NOAA 18 16 Jan 19:07:43 19:12:54 42° 260° (W) 19:18:06 137.9125
HO-68 16 Jan 19:12:21 19:19:30 72° 72° (ENE) 19:26:41 435.675
GONETS M04 16 Jan 19:14:45 19:20:50 22° 82° (E) 19:26:56
SEEDS 16 Jan 19:16:27 19:20:21 39° 74° (ENE) 19:24:17 437.485
COMPASS 1 16 Jan 19:30:14 19:34:03 36° 73° (ENE) 19:37:53 437.405
UWE-3 16 Jan 19:32:12 19:35:20 21° 71° (ENE) 19:38:27 435.000/436.395/437.385
SRMSAT 16 Jan 19:32:13 19:36:38 21° 176° (S) 19:41:03 437.500
FUNcube-1 16 Jan 19:41:15 19:43:20 14° 68° (ENE) 19:45:25 145.935
AAUSAT CUBESAT 2 16 Jan 19:45:50 19:49:45 42° 74° (ENE) 19:53:42 437.432
AIST 2 16 Jan 19:53:42 19:57:03 25° 111° (ESE) 20:00:26 435.215
ZACube-1 16 Jan 20:00:18 20:03:44 26° 72° (ENE) 20:07:10 437.345
JUGNU 16 Jan 20:00:26 20:03:56 16° 192° (SSW) 20:07:25 437.505
CUTE 1.7 + AOD 2 16 Jan 20:03:48 20:07:36 32° 263° (W) 20:11:26 437.475
CUBEBUG 2 16 Jan 20:30:13 20:34:13 41° 261° (W) 20:38:10 437.445
CANX-2 16 Jan 20:34:18 20:36:10 13° 267° (W) 20:38:02 2200.000
STRAND 1 16 Jan 20:42:05 20:46:28 29° 290° (WNW) 20:50:51 437.568
Oscar 11 16 Jan 20:43:37 20:47:53 78° 78° (ENE) 20:52:13 145.826/435.025
HUMSAT D 16 Jan 20:50:09 20:52:10 14° 68° (ENE) 20:54:13 437.325/437.525
SEEDS 16 Jan 20:54:10 20:56:10 13° 267° (W) 20:58:09 437.485
Cosmos 2499 16 Jan 20:57:05 21:05:35 60° 279° (W) 21:13:36 435.465 / 435.565
HO-68 16 Jan 21:03:20 21:07:42 17° 267° (W) 21:12:06 435.675
COMPASS 1 16 Jan 21:07:29 21:09:40 14° 267° (W) 21:11:52 437.405
GONETS M04 16 Jan 21:08:11 21:16:46 66° 278° (W) 21:25:29
UWE-3 16 Jan 21:08:16 21:11:38 24° 264° (W) 21:15:00 435.000/436.395/437.385
FUNcube-1 16 Jan 21:15:23 21:19:12 37° 261° (W) 21:23:03 145.935
PRISM 16 Jan 21:20:18 21:24:06 36° 99° (E) 21:27:52 437.425
SRMSAT 16 Jan 21:20:54 21:25:11 20° 186° (S) 21:29:29 437.500
AAUSAT CUBESAT 2 16 Jan 21:23:49 21:25:22 12° 267° (W) 21:26:55 437.432
AIST 2 16 Jan 21:32:06 21:35:25 23° 306° (NW) 21:38:47 435.215
ZACube-1 16 Jan 21:37:01 21:39:58 19° 265° (W) 21:42:55 437.345
DELFI C3 16 Jan 21:39:48 21:43:46 67° 260° (W) 21:47:46 145.870
UNISAT 6 16 Jan 22:03:07 22:07:08 33° 98° (E) 22:11:12 437.425
ESTCUBE 1 16 Jan 22:09:58 22:12:40 16° 67° (ENE) 22:15:23 437.505/2401.250
TIGRISAT 16 Jan 22:17:35 22:21:50 46° 100° (E) 22:26:10 435.000
RS-15 16 Jan 22:23:16 22:30:17 18° 98° (E) 22:37:25 29.354- 29.394
HUMSAT D 16 Jan 22:23:38 22:27:24 37° 262° (W) 22:31:13 437.325/437.525
BY70-1 16 Jan 22:26:39 22:29:16 41° 74° (ENE) 22:32:08 436.1900
ANTELSAT 16 Jan 22:31:36 22:36:02 74° 102° (ESE) 22:40:33 437.575/2403.000
VELOX 1 16 Jan 22:40:26 22:42:00 12° 66° (ENE) 22:43:34 145.980
PRISM 16 Jan 22:56:50 22:59:01 14° 293° (WNW) 23:01:12 437.425
ISS 16 Jan 23:05:06 23:08:15 51° 133° (SE) 23:11:26 145.825
SRMSAT 16 Jan 23:11:13 23:13:40 13° 196° (SSW) 23:16:08 437.500
POPSAT HIP 1 16 Jan 23:13:23 23:16:03 16° 95° (E) 23:18:42 437.405
JAS-2 16 Jan 23:24:21 23:31:32 74° 103° (ESE) 23:39:17 435.910
DX 1 16 Jan 23:24:42 23:27:38 18° 68° (ENE) 23:30:34 434.975-435.025
DUCHIFAT 1 16 Jan 23:28:56 23:32:10 21° 96° (E) 23:35:24 145.980
NANOSAT C BR1 16 Jan 23:32:01 23:35:34 26° 97° (E) 23:39:05 145.865
UKube-1 16 Jan 23:32:27 23:35:00 15° 67° (ENE) 23:37:32 .
CUBEBUG 1 16 Jan 23:34:17 23:38:43 86° 73° (ENE) 23:43:09 437.445
SPROUT 16 Jan 23:37:12 23:41:07 37° 73° (ENE) 23:45:02 437.525
50 SAT 16 Jan 23:38:04 23:41:21 36° 74° (ENE) 23:44:40 437.505
AISAT 16 Jan 23:39:53 23:44:17 63° 75° (ENE) 23:48:42 437.250
UNISAT 6 16 Jan 23:40:35 23:43:34 18° 291° (WNW) 23:46:34 437.425
ESTCUBE 1 16 Jan 23:44:52 23:49:05 40° 261° (W) 23:53:21 437.505/2401.250
TIGRISAT 16 Jan 23:56:00 23:58:06 13° 293° (WNW) 00:00:14 435.000
PCSat 17 Jan 00:09:24 00:10:17 10° 102° (ESE) 00:11:11 145.827
VELOX 1 17 Jan 00:13:36 00:17:56 53° 260° (W) 00:22:18 145.980
AO-85 17 Jan 00:19:28 00:23:20 66° 60° (ENE) 00:27:14 145.980
BUGSAT 1 17 Jan 00:19:54 00:23:23 28° 97° (E) 00:26:54 437.445
QB50P1 17 Jan 00:21:14 00:25:25 66° 284° (WNW) 00:29:35 145.935-145.965
POLYITAN 1 17 Jan 00:24:05 00:28:14 60° 285° (WNW) 00:32:24 437.675
QB50P2 17 Jan 00:25:13 00:29:20 54° 285° (WNW) 00:33:27 145.880/145.840
RS-15 17 Jan 00:29:09 00:40:53 88° 116° (ESE) 00:53:14 29.354- 29.394
YUBILEINY 17 Jan 00:42:35 00:48:26 19° 69° (ENE) 00:54:13 435.215
ISS 17 Jan 00:43:00 00:44:57 15° 328° (NNW) 00:46:54 145.825
POPSAT HIP 1 17 Jan 00:48:06 00:51:51 31° 287° (WNW) 00:55:35 437.405
DX 1 17 Jan 00:59:36 01:03:31 32° 261° (W) 01:07:29 434.975-435.025
AIST 1 17 Jan 01:03:04 01:05:49 17° 75° (ENE) 01:08:33
Oscar 19 17 Jan 01:03:12 01:07:17 23° 96° (E) 01:11:20 437.125/150
DUCHIFAT 1 17 Jan 01:04:22 01:07:44 24° 289° (WNW) 01:11:06 145.980
UKube-1 17 Jan 01:06:40 01:10:40 37° 261° (W) 01:14:42 .
NANOSAT C BR1 17 Jan 01:08:01 01:11:05 20° 290° (WNW) 01:14:09 145.865
JAS-2 17 Jan 01:11:08 01:15:55 20° 295° (WNW) 01:20:57 435.910
SPROUT 17 Jan 01:14:48 01:17:07 14° 266° (W) 01:19:25 437.525
TISAT 1 17 Jan 01:19:07 01:23:18 81° 77° (ENE) 01:27:29 437.305
Cosmos 2491 17 Jan 01:25:27 01:31:27 21° 82° (E) 01:37:27 435.465 / 435.565
BEESAT 17 Jan 01:41:28 01:45:20 25° 69° (ENE) 01:49:13 436.000
SWISSCUBE 17 Jan 01:42:26 01:46:30 29° 70° (ENE) 01:50:36 437.505
PCSat 17 Jan 01:47:33 01:52:56 77° 296° (WNW) 01:58:22 145.827
BUGSAT 1 17 Jan 01:55:55 01:58:31 17° 291° (WNW) 02:01:07 437.445
MOZHAYETS 4 17 Jan 02:13:37 02:16:02 14° 67° (ENE) 02:18:27
BEESAT 3 17 Jan 02:18:56 02:22:34 32° 57° (ENE) 02:26:09 437.485
PHONESAT 2.4 17 Jan 02:21:27 02:22:58 16° 145° (SE) 02:24:30 2401.200-2431.200
Gurwin Techsat 1B 17 Jan 02:23:51 02:29:12 81° 102° (ESE) 02:34:30 435.225
M-CUBED/EXP-1 PRIME 17 Jan 02:27:28 02:30:09 16° 65° (ENE) 02:32:44 437.505
Cosmos 2504 17 Jan 02:30:22 02:37:31 50° 79° (E) 02:44:24 435.465 / 435.565
YUBILEINY 17 Jan 02:37:15 02:46:03 76° 267° (W) 02:54:46 435.215
AIST 1 17 Jan 02:39:43 02:43:25 29° 269° (W) 02:47:04
ITUPSAT 1 17 Jan 02:40:47 02:45:30 72° 257° (WSW) 02:50:16 437.325
Oscar 19 17 Jan 02:41:59 02:46:35 33° 290° (WNW) 02:51:09 437.125/150
RS-15 17 Jan 02:45:21 02:55:05 28° 320° (NW) 03:05:08 29.354- 29.394
BEESAT 2 17 Jan 02:54:59 02:58:42 34° 57° (ENE) 03:02:22 435.950
AUBIESAT-1 17 Jan 03:06:08 03:10:07 33° 69° (ENE) 03:13:55 437.475
